User: anonymous   Login
Location: Carnetin
(48.9010°N, 2.7059°E)
Time: 02:56:08
(UTC+00:00)
Language:

Cosmos 1300 - Orbit

View from above orbital plane
View from above orbital plane
View from above satellite
View from above satellite

Ground track
Ground track

The orbit data is extracted from the following two-line orbital elements,

1 12785U 81082A   22020.59513414  .00001799  00000-0  85593-4 0  9990
2 12785  82.5015 211.8977 0001936 122.0419 297.5517 15.18553142206390
Epoch (UTC): 20 January 2022 14:16:59
Eccentricity: 0.0001936
inclination: 82.5015°
perigee height: 509 km
apogee height: 511 km
right ascension of ascending node: 211.8977°
argument of perigee: 122.0419°
revolutions per day: 15.18553142
mean anomaly at epoch: 297.5517°
orbit number at epoch: 20639

The dashed part of the orbit path shows where the satellite is in the earth's shadow,  

DLR